SL-16 DEB, 22598

Orbit data source: Space-Track

SL-16 DEB, 22598 is space debris in LEO originally from a launch on Fri, 25 Dec 1992 UTC launched from the Tyuratam Missile And Space Complex (TTMTR). Debris objects in space refer to the collection of defunct objects orbiting the Earth. Examples of debris include non-operational satellites, rocket bodies, and fragments generated from explosions, collisions, or faulty payload assembly.

Loading next visibility...
Identifier
22598, 1992-093HX
Orbit
LEO
Country
Flag of CISCIS
Related business
Manufacturer
Unknown
Mission
Spacecraft
Bus & Motor
Unknown
Mass
Unknown
Launch date (UTC)
1992-12-25 (33 years ago)
Launch vehicle
Unknown
Launch site
Tyuratam Missile And Space Complex (TTMTR)
Object type
Payload
Rocket body
Debris
Shape & HBR
Unknown shape, 0.1 m
Radar Cross Section
Small (<0.1 m²)

Expand to show TLE details & history
Last TLE update: 11 hours ago

TLE from 11 hours ago
0 SL-16 DEB
1 22598U 92093HX  25297.89190470  .00000811  00000-0  51559-3 0  9990
2 22598  70.6420 122.2553 0090457 311.2245  48.1098 14.04958342674377
Epoch: 2025-10-24T21:24Z
TLE epoch observation values (Epoch: 2025-10-24T21:24:20.566Z)
Latitude
0.00004°
Longitude
127.63933°
Altitude
835.549 km
Speed
7.458 km/s
True Right ascension
08h 09m 01s
True Declination
0° 00' 00"
Sunlit
Object was in daylight at epoch
Visualization orbit readout
Latitude
Unknown
Longitude
Unknown
Altitude
Unknown
Speed
Unknown
Apparent Right ascension
Unknown
Apparent Declination
Unknown
Sunlit
N/A
Visualization observer readout
Local Sidereal Time
03:10:43
Azimuth
Unknown
Elevation
Unknown
Doppler factor
Unknown
Orbital elements
Apogee altitude
940.252 km
Perigee altitude
809.039 km
Semi-major axis
7,252.783 km
Eccentricity
0.00905
Inclination
70.642°
RAAN
122.2553°
Arg. of periapsis
311.2245°
True anomaly
48.88729°
Mean anomaly
48.1098°
Eccentric anomaly
48.49796°
Mean motion
3.51387 °/min
Orbital period
102.45 mins
BSTAR
0.00051559
Loading maneuver chart data...
Computing Atmospheric mass density...

Documentation

Showing up to 5 results
|